contact:dominique.lefevre@mio.osupytheas.fr, maurice.libes@osupytheas.fr, didier.mallarino@osupytheas.fr
Project:EMSO http://www.emso-fr.org/EMSO-France
Depth: 2436.0 m
Title:EMSO Ligure Ouest : Data MII capteur MICROCAT
DateTime_Computer,Latitude,Longitude,Temperature,Conductivity,Pressure,DateTime_Instrument
DateTime_Computer,Latitude,Longitude,degC,S m-1,dbar,DateTime_Instrument
2023-03-09T00:01:50Z,42.805,6.029,13.3041,4.60116,2470.637,2023-3-09T02:04:26Z
2023-03-09T00:04:53Z,42.805,6.029,13.3036,4.60102,2470.624,2023-3-09T02:07:29Z
2023-03-09T00:07:56Z,42.805,6.029,13.3041,4.60105,2470.624,2023-3-09T02:10:32Z
2023-03-09T00:10:59Z,42.805,6.029,13.3036,4.60087,2470.637,2023-3-09T02:13:35Z
2023-03-09T00:14:02Z,42.805,6.029,13.3042,4.60092,2470.637,2023-3-09T02:16:38Z
2023-03-09T00:17:05Z,42.805,6.029,13.3043,4.60096,2470.6,2023-3-09T02:19:41Z
2023-03-09T00:20:08Z,42.805,6.029,13.3041,4.60095,2470.637,2023-3-09T02:22:44Z
2023-03-09T00:23:11Z,42.805,6.029,13.3041,4.60105,2470.586,2023-3-09T02:25:47Z
2023-03-09T00:26:14Z,42.805,6.029,13.3037,4.60112,2470.661,2023-3-09T02:28:50Z
2023-03-09T00:29:17Z,42.805,6.029,13.3037,4.60086,2470.577,2023-3-09T02:31:53Z
2023-03-09T00:32:20Z,42.805,6.029,13.3041,4.60096,2470.577,2023-3-09T02:34:56Z
2023-03-09T00:35:23Z,42.805,6.029,13.3034,4.60127,2470.624,2023-3-09T02:37:59Z
2023-03-09T00:38:27Z,42.805,6.029,13.3048,4.60122,2470.624,2023-3-09T02:41:03Z
2023-03-09T00:41:30Z,42.805,6.029,13.3039,4.60104,2470.646,2023-3-09T02:44:06Z
2023-03-09T00:44:33Z,42.805,6.029,13.3051,4.60128,2470.6,2023-3-09T02:47:09Z
2023-03-09T00:47:36Z,42.805,6.029,13.3034,4.60137,2470.61,2023-3-09T02:50:12Z
2023-03-09T00:50:39Z,42.805,6.029,13.3044,4.60134,2470.637,2023-3-09T02:53:15Z
2023-03-09T00:53:42Z,42.805,6.029,13.3036,4.60110,2470.646,2023-3-09T02:56:18Z
2023-03-09T00:56:45Z,42.805,6.029,13.3043,4.60096,2470.6,2023-3-09T02:59:21Z
2023-03-09T00:59:48Z,42.805,6.029,13.3036,4.60111,2470.624,2023-3-09T03:02:24Z
2023-03-09T01:02:51Z,42.805,6.029,13.3044,4.60109,2470.6,2023-3-09T03:05:27Z
2023-03-09T01:05:54Z,42.805,6.029,13.3041,4.60135,2470.614,2023-3-09T03:08:30Z
2023-03-09T01:08:57Z,42.805,6.029,13.3038,4.60102,2470.6,2023-3-09T03:11:33Z
2023-03-09T01:12:00Z,42.805,6.029,13.3045,4.60101,2470.567,2023-3-09T03:14:36Z
2023-03-09T01:15:03Z,42.805,6.029,13.3051,4.60125,2470.591,2023-3-09T03:17:39Z
2023-03-09T01:18:06Z,42.805,6.029,13.3042,4.60110,2470.614,2023-3-09T03:20:43Z
2023-03-09T01:21:10Z,42.805,6.029,13.3040,4.60103,2470.614,2023-3-09T03:23:46Z
2023-03-09T01:24:13Z,42.805,6.029,13.3036,4.60127,2470.577,2023-3-09T03:26:49Z
2023-03-09T01:27:16Z,42.805,6.029,13.3040,4.60110,2470.614,2023-3-09T03:29:52Z
2023-03-09T01:30:19Z,42.805,6.029,13.3035,4.60134,2470.6,2023-3-09T03:32:55Z
2023-03-09T01:33:22Z,42.805,6.029,13.3041,4.60129,2470.6,2023-3-09T03:35:58Z
2023-03-09T01:36:25Z,42.805,6.029,13.3045,4.60104,2470.591,2023-3-09T03:39:01Z
2023-03-09T01:39:28Z,42.805,6.029,13.3050,4.60128,2470.553,2023-3-09T03:42:04Z
2023-03-09T01:42:31Z,42.805,6.029,13.3046,4.60135,2470.614,2023-3-09T03:45:07Z
2023-03-09T01:45:34Z,42.805,6.029,13.3043,4.60135,2470.577,2023-3-09T03:48:10Z
2023-03-09T01:48:37Z,42.805,6.029,13.3043,4.60137,2470.6,2023-3-09T03:51:13Z
2023-03-09T01:51:40Z,42.805,6.029,13.3040,4.60122,2470.591,2023-3-09T03:54:16Z
2023-03-09T01:54:43Z,42.805,6.029,13.3047,4.60147,2470.6,2023-3-09T03:57:19Z
2023-03-09T01:57:46Z,42.805,6.029,13.3056,4.60103,2470.591,2023-3-09T04:00:23Z
2023-03-09T02:00:50Z,42.805,6.029,13.3041,4.60122,2470.553,2023-3-09T04:03:26Z
2023-03-09T02:03:53Z,42.805,6.029,13.3043,4.60104,2470.6,2023-3-09T04:06:29Z
2023-03-09T02:06:56Z,42.805,6.029,13.3042,4.60105,2470.591,2023-3-09T04:09:32Z
2023-03-09T02:09:59Z,42.805,6.029,13.3037,4.60140,2470.577,2023-3-09T04:12:35Z
2023-03-09T02:13:02Z,42.805,6.029,13.3039,4.60114,2470.614,2023-3-09T04:15:38Z
2023-03-09T02:16:05Z,42.805,6.029,13.3043,4.60157,2470.6,2023-3-09T04:18:41Z
2023-03-09T02:19:08Z,42.805,6.029,13.3046,4.60122,2470.6,2023-3-09T04:21:44Z
2023-03-09T02:22:11Z,42.805,6.029,13.3049,4.60116,2470.591,2023-3-09T04:24:47Z
2023-03-09T02:25:14Z,42.805,6.029,13.3052,4.60093,2470.577,2023-3-09T04:27:50Z
2023-03-09T02:28:17Z,42.805,6.029,13.3048,4.60137,2470.577,2023-3-09T04:30:53Z
2023-03-09T02:31:20Z,42.805,6.029,13.3046,4.60107,2470.6,2023-3-09T04:33:56Z
2023-03-09T02:34:23Z,42.805,6.029,13.3041,4.60119,2470.6,2023-3-09T04:36:59Z
2023-03-09T02:37:26Z,42.805,6.029,13.3030,4.60090,2470.6,2023-3-09T04:40:02Z
2023-03-09T02:40:29Z,42.805,6.029,13.3029,4.60097,2470.591,2023-3-09T04:43:06Z
2023-03-09T02:43:33Z,42.805,6.029,13.3044,4.60085,2470.614,2023-3-09T04:46:09Z
2023-03-09T02:46:36Z,42.805,6.029,13.3026,4.60074,2470.6,2023-3-09T04:49:12Z
2023-03-09T02:49:39Z,42.805,6.029,13.3039,4.60097,2470.577,2023-3-09T04:52:15Z
2023-03-09T02:52:42Z,42.805,6.029,13.3037,4.60090,2470.591,2023-3-09T04:55:18Z
2023-03-09T02:55:45Z,42.805,6.029,13.3031,4.60092,2470.577,2023-3-09T04:58:21Z
2023-03-09T02:58:48Z,42.805,6.029,13.3031,4.60106,2470.6,2023-3-09T05:01:24Z
2023-03-09T03:01:51Z,42.805,6.029,13.3028,4.60096,2470.577,2023-3-09T05:04:27Z
2023-03-09T03:04:54Z,42.805,6.029,13.3033,4.60121,2470.591,2023-3-09T05:07:30Z
2023-03-09T03:07:57Z,42.805,6.029,13.3030,4.60094,2470.577,2023-3-09T05:10:33Z
2023-03-09T03:11:00Z,42.805,6.029,13.3025,4.60112,2470.577,2023-3-09T05:13:36Z
2023-03-09T03:14:03Z,42.805,6.029,13.3034,4.60096,2470.614,2023-3-09T05:16:39Z
2023-03-09T03:17:06Z,42.805,6.029,13.3043,4.60123,2470.6,2023-3-09T05:19:42Z
2023-03-09T03:20:09Z,42.805,6.029,13.3029,4.60126,2470.563,2023-3-09T05:22:46Z
2023-03-09T03:23:13Z,42.805,6.029,13.3037,4.60109,2470.6,2023-3-09T05:25:49Z
2023-03-09T03:26:16Z,42.805,6.029,13.3035,4.60089,2470.614,2023-3-09T05:28:52Z
2023-03-09T03:29:19Z,42.805,6.029,13.3035,4.60116,2470.6,2023-3-09T05:31:55Z
2023-03-09T03:32:22Z,42.805,6.029,13.3028,4.60090,2470.6,2023-3-09T05:34:58Z
2023-03-09T03:35:25Z,42.805,6.029,13.3025,4.60093,2470.577,2023-3-09T05:38:01Z
2023-03-09T03:38:28Z,42.805,6.029,13.3027,4.60101,2470.591,2023-3-09T05:41:04Z
2023-03-09T03:41:31Z,42.805,6.029,13.3036,4.60112,2470.6,2023-3-09T05:44:07Z
2023-03-09T03:44:34Z,42.805,6.029,13.3032,4.60113,2470.591,2023-3-09T05:47:10Z
2023-03-09T03:47:37Z,42.805,6.029,13.3025,4.60110,2470.614,2023-3-09T05:50:13Z
2023-03-09T03:50:40Z,42.805,6.029,13.3029,4.60115,2470.624,2023-3-09T05:53:16Z
2023-03-09T03:53:43Z,42.805,6.029,13.3025,4.60107,2470.577,2023-3-09T05:56:19Z
2023-03-09T03:56:46Z,42.805,6.029,13.3034,4.60113,2470.614,2023-3-09T05:59:22Z
2023-03-09T03:59:49Z,42.805,6.029,13.3038,4.60114,2470.614,2023-3-09T06:02:26Z
2023-03-09T04:02:53Z,42.805,6.029,13.3029,4.60101,2470.661,2023-3-09T06:05:29Z
2023-03-09T04:05:56Z,42.805,6.029,13.3025,4.60099,2470.614,2023-3-09T06:08:32Z
2023-03-09T04:08:59Z,42.805,6.029,13.3029,4.60111,2470.6,2023-3-09T06:11:35Z
2023-03-09T04:12:02Z,42.805,6.029,13.3046,4.60114,2470.6,2023-3-09T06:14:38Z
2023-03-09T04:15:05Z,42.805,6.029,13.3034,4.60110,2470.624,2023-3-09T06:17:41Z
2023-03-09T04:18:08Z,42.805,6.029,13.3038,4.60117,2470.614,2023-3-09T06:20:44Z
2023-03-09T04:21:11Z,42.805,6.029,13.3029,4.60112,2470.6,2023-3-09T06:23:47Z
2023-03-09T04:24:14Z,42.805,6.029,13.3026,4.60096,2470.646,2023-3-09T06:26:50Z
2023-03-09T04:27:17Z,42.805,6.029,13.3028,4.60095,2470.661,2023-3-09T06:29:53Z
2023-03-09T04:30:20Z,42.805,6.029,13.3027,4.60099,2470.646,2023-3-09T06:32:56Z
2023-03-09T04:33:23Z,42.805,6.029,13.3026,4.60100,2470.646,2023-3-09T06:35:59Z
2023-03-09T04:36:26Z,42.805,6.029,13.3030,4.60119,2470.646,2023-3-09T06:39:02Z
2023-03-09T04:39:29Z,42.805,6.029,13.3033,4.60104,2470.637,2023-3-09T06:42:06Z
2023-03-09T04:42:33Z,42.805,6.029,13.3036,4.60104,2470.646,2023-3-09T06:45:09Z
2023-03-09T04:45:36Z,42.805,6.029,13.3034,4.60110,2470.661,2023-3-09T06:48:12Z
2023-03-09T04:48:39Z,42.805,6.029,13.3031,4.60120,2470.624,2023-3-09T06:51:15Z
2023-03-09T04:51:42Z,42.805,6.029,13.3034,4.60121,2470.646,2023-3-09T06:54:18Z
2023-03-09T04:54:45Z,42.805,6.029,13.3033,4.60111,2470.646,2023-3-09T06:57:21Z
2023-03-09T04:57:48Z,42.805,6.029,13.3034,4.60097,2470.646,2023-3-09T07:00:24Z
2023-03-09T05:00:51Z,42.805,6.029,13.3024,4.60099,2470.661,2023-3-09T07:03:27Z
2023-03-09T05:03:54Z,42.805,6.029,13.3035,4.60117,2470.684,2023-3-09T07:06:30Z
2023-03-09T05:06:57Z,42.805,6.029,13.3030,4.60110,2470.684,2023-3-09T07:09:33Z
2023-03-09T05:10:00Z,42.805,6.029,13.3026,4.60101,2470.684,2023-3-09T07:12:36Z
2023-03-09T05:13:03Z,42.805,6.029,13.3023,4.60096,2470.67,2023-3-09T07:15:39Z
2023-03-09T05:16:06Z,42.805,6.029,13.3029,4.60104,2470.707,2023-3-09T07:18:42Z
2023-03-09T05:19:09Z,42.805,6.029,13.3028,4.60117,2470.646,2023-3-09T07:21:46Z
2023-03-09T05:22:12Z,42.805,6.029,13.3034,4.60125,2470.717,2023-3-09T07:24:49Z
2023-03-09T05:25:16Z,42.805,6.029,13.3036,4.60126,2470.693,2023-3-09T07:27:52Z
2023-03-09T05:28:19Z,42.805,6.029,13.3035,4.60114,2470.707,2023-3-09T07:30:55Z
2023-03-09T05:31:22Z,42.805,6.029,13.3031,4.60114,2470.693,2023-3-09T07:33:58Z
2023-03-09T05:34:25Z,42.805,6.029,13.3028,4.60101,2470.693,2023-3-09T07:37:01Z
2023-03-09T05:37:28Z,42.805,6.029,13.3031,4.60096,2470.693,2023-3-09T07:40:04Z
2023-03-09T05:40:31Z,42.805,6.029,13.3029,4.60109,2470.693,2023-3-09T07:43:07Z
2023-03-09T05:43:34Z,42.805,6.029,13.3031,4.60105,2470.717,2023-3-09T07:46:10Z
2023-03-09T05:46:37Z,42.805,6.029,13.3029,4.60135,2470.717,2023-3-09T07:49:13Z
2023-03-09T05:49:40Z,42.805,6.029,13.3026,4.60104,2470.754,2023-3-09T07:52:16Z
2023-03-09T05:52:43Z,42.805,6.029,13.3026,4.60099,2470.707,2023-3-09T07:55:19Z
2023-03-09T05:55:46Z,42.805,6.029,13.3029,4.60100,2470.74,2023-3-09T07:58:22Z
2023-03-09T05:58:49Z,42.805,6.029,13.3027,4.60110,2470.717,2023-3-09T08:01:26Z
2023-03-09T06:01:52Z,42.805,6.029,13.3029,4.60116,2470.754,2023-3-09T08:04:29Z
2023-03-09T06:04:56Z,42.805,6.029,13.3028,4.60105,2470.73,2023-3-09T08:07:32Z
2023-03-09T06:07:59Z,42.805,6.029,13.3027,4.60114,2470.754,2023-3-09T08:10:35Z
2023-03-09T06:11:02Z,42.805,6.029,13.3027,4.60109,2470.74,2023-3-09T08:13:38Z
2023-03-09T06:14:05Z,42.805,6.029,13.3028,4.60116,2470.763,2023-3-09T08:16:41Z
2023-03-09T06:17:08Z,42.805,6.029,13.3030,4.60111,2470.777,2023-3-09T08:19:44Z
2023-03-09T06:20:11Z,42.805,6.029,13.3031,4.60113,2470.74,2023-3-09T08:22:47Z
2023-03-09T06:23:14Z,42.805,6.029,13.3031,4.60107,2470.777,2023-3-09T08:25:50Z
2023-03-09T06:26:17Z,42.805,6.029,13.3034,4.60140,2470.763,2023-3-09T08:28:53Z
2023-03-09T06:29:20Z,42.805,6.029,13.3026,4.60114,2470.75,2023-3-09T08:31:56Z
2023-03-09T06:32:23Z,42.805,6.029,13.3031,4.60125,2470.8,2023-3-09T08:34:59Z
2023-03-09T06:35:26Z,42.805,6.029,13.3030,4.60136,2470.717,2023-3-09T08:38:02Z
2023-03-09T06:38:29Z,42.805,6.029,13.3038,4.60135,2470.787,2023-3-09T08:41:06Z
2023-03-09T06:41:32Z,42.805,6.029,13.3029,4.60113,2470.754,2023-3-09T08:44:09Z
2023-03-09T06:44:36Z,42.805,6.029,13.3031,4.60122,2470.8,2023-3-09T08:47:12Z
2023-03-09T06:47:39Z,42.805,6.029,13.3034,4.60125,2470.787,2023-3-09T08:50:15Z
2023-03-09T06:50:42Z,42.805,6.029,13.3021,4.60132,2470.81,2023-3-09T08:53:18Z
2023-03-09T06:53:45Z,42.805,6.029,13.3042,4.60087,2470.777,2023-3-09T08:56:21Z
2023-03-09T06:56:48Z,42.805,6.029,13.3029,4.60107,2470.763,2023-3-09T08:59:24Z
2023-03-09T06:59:51Z,42.805,6.029,13.3029,4.60122,2470.824,2023-3-09T09:02:27Z
2023-03-09T07:02:54Z,42.805,6.029,13.3025,4.60107,2470.824,2023-3-09T09:05:30Z
2023-03-09T07:05:57Z,42.805,6.029,13.3031,4.60108,2470.81,2023-3-09T09:08:33Z
2023-03-09T07:09:00Z,42.805,6.029,13.3029,4.60114,2470.787,2023-3-09T09:11:36Z
2023-03-09T07:12:03Z,42.805,6.029,13.3033,4.60109,2470.777,2023-3-09T09:14:39Z
2023-03-09T07:15:06Z,42.805,6.029,13.3024,4.60105,2470.824,2023-3-09T09:17:42Z
2023-03-09T07:18:09Z,42.805,6.029,13.3032,4.60117,2470.81,2023-3-09T09:20:46Z
2023-03-09T07:21:12Z,42.805,6.029,13.3027,4.60112,2470.81,2023-3-09T09:23:49Z
2023-03-09T07:24:15Z,42.805,6.029,13.3029,4.60129,2470.824,2023-3-09T09:26:52Z
2023-03-09T07:27:19Z,42.805,6.029,13.3031,4.60125,2470.8,2023-3-09T09:29:55Z
2023-03-09T07:30:22Z,42.805,6.029,13.3036,4.60092,2470.833,2023-3-09T09:32:58Z
2023-03-09T07:33:25Z,42.805,6.029,13.3036,4.60120,2470.847,2023-3-09T09:36:01Z
2023-03-09T07:36:28Z,42.805,6.029,13.3031,4.60122,2470.833,2023-3-09T09:39:04Z
2023-03-09T07:39:31Z,42.805,6.029,13.3032,4.60105,2470.796,2023-3-09T09:42:07Z
2023-03-09T07:42:34Z,42.805,6.029,13.3034,4.60112,2470.847,2023-3-09T09:45:10Z
2023-03-09T07:45:37Z,42.805,6.029,13.3034,4.60126,2470.857,2023-3-09T09:48:13Z
2023-03-09T07:48:40Z,42.805,6.029,13.3037,4.60110,2470.857,2023-3-09T09:51:16Z
2023-03-09T07:51:43Z,42.805,6.029,13.3041,4.60099,2470.833,2023-3-09T09:54:19Z
2023-03-09T07:54:46Z,42.805,6.029,13.3035,4.60122,2470.833,2023-3-09T09:57:22Z
2023-03-09T07:57:49Z,42.805,6.029,13.3031,4.60103,2470.833,2023-3-09T10:00:26Z
2023-03-09T08:00:52Z,42.805,6.029,13.3034,4.60109,2470.833,2023-3-09T10:03:29Z
2023-03-09T08:03:55Z,42.805,6.029,13.3035,4.60109,2470.847,2023-3-09T10:06:32Z
2023-03-09T08:06:59Z,42.805,6.029,13.3039,4.60140,2470.857,2023-3-09T10:09:35Z
2023-03-09T08:10:02Z,42.805,6.029,13.3036,4.60114,2470.824,2023-3-09T10:12:38Z
2023-03-09T08:13:05Z,42.805,6.029,13.3055,4.60102,2470.857,2023-3-09T10:15:41Z
2023-03-09T08:16:08Z,42.805,6.029,13.3042,4.60135,2470.81,2023-3-09T10:18:44Z
2023-03-09T08:19:11Z,42.805,6.029,13.3049,4.60139,2470.833,2023-3-09T10:21:47Z
2023-03-09T08:22:14Z,42.805,6.029,13.3042,4.60100,2470.871,2023-3-09T10:24:50Z
2023-03-09T08:25:17Z,42.805,6.029,13.3039,4.60105,2470.847,2023-3-09T10:27:53Z
2023-03-09T08:28:20Z,42.805,6.029,13.3036,4.60140,2470.833,2023-3-09T10:30:56Z
2023-03-09T08:31:23Z,42.805,6.029,13.3043,4.60098,2470.81,2023-3-09T10:33:59Z
2023-03-09T08:34:26Z,42.805,6.029,13.3034,4.60131,2470.857,2023-3-09T10:37:02Z
2023-03-09T08:37:29Z,42.805,6.029,13.3045,4.60104,2470.857,2023-3-09T10:40:06Z
2023-03-09T08:40:32Z,42.805,6.029,13.3044,4.60114,2470.847,2023-3-09T10:43:09Z
2023-03-09T08:43:35Z,42.805,6.029,13.3050,4.60132,2470.81,2023-3-09T10:46:12Z
2023-03-09T08:46:39Z,42.805,6.029,13.3035,4.60117,2470.833,2023-3-09T10:49:15Z
2023-03-09T08:49:42Z,42.805,6.029,13.3031,4.60097,2470.81,2023-3-09T10:52:18Z
2023-03-09T08:52:45Z,42.805,6.029,13.3043,4.60122,2470.833,2023-3-09T10:55:21Z
2023-03-09T08:55:48Z,42.805,6.029,13.3031,4.60079,2470.871,2023-3-09T10:58:24Z
2023-03-09T08:58:51Z,42.805,6.029,13.3024,4.60077,2470.857,2023-3-09T11:01:27Z
2023-03-09T09:01:54Z,42.805,6.029,13.3036,4.60081,2470.81,2023-3-09T11:04:30Z
2023-03-09T09:04:57Z,42.805,6.029,13.3014,4.60069,2470.833,2023-3-09T11:07:33Z
2023-03-09T09:08:00Z,42.805,6.029,13.3015,4.60074,2470.833,2023-3-09T11:10:36Z
2023-03-09T09:11:03Z,42.805,6.029,13.3027,4.60073,2470.857,2023-3-09T11:13:39Z
2023-03-09T09:14:06Z,42.805,6.029,13.3047,4.60095,2470.81,2023-3-09T11:16:42Z
2023-03-09T09:17:09Z,42.805,6.029,13.3029,4.60087,2470.857,2023-3-09T11:19:46Z
2023-03-09T09:20:12Z,42.805,6.029,13.3021,4.60069,2470.847,2023-3-09T11:22:49Z
2023-03-09T09:23:15Z,42.805,6.029,13.3020,4.60074,2470.847,2023-3-09T11:25:52Z
2023-03-09T09:26:19Z,42.805,6.029,13.3019,4.60072,2470.847,2023-3-09T11:28:55Z
2023-03-09T09:29:22Z,42.805,6.029,13.3020,4.60069,2470.871,2023-3-09T11:31:58Z
2023-03-09T09:32:25Z,42.805,6.029,13.3014,4.60069,2470.833,2023-3-09T11:35:01Z
2023-03-09T09:35:28Z,42.805,6.029,13.3015,4.60069,2470.857,2023-3-09T11:38:04Z
2023-03-09T09:38:31Z,42.805,6.029,13.3020,4.60069,2470.847,2023-3-09T11:41:07Z
2023-03-09T09:41:34Z,42.805,6.029,13.3036,4.60094,2470.833,2023-3-09T11:44:10Z
2023-03-09T09:44:37Z,42.805,6.029,13.3018,4.60072,2470.833,2023-3-09T11:47:13Z
2023-03-09T09:47:40Z,42.805,6.029,13.3019,4.60069,2470.81,2023-3-09T11:50:16Z
2023-03-09T09:50:43Z,42.805,6.029,13.3028,4.60084,2470.833,2023-3-09T11:53:19Z
2023-03-09T09:53:46Z,42.805,6.029,13.3029,4.60082,2470.824,2023-3-09T11:56:22Z
2023-03-09T09:56:49Z,42.805,6.029,13.3018,4.60076,2470.81,2023-3-09T11:59:26Z
2023-03-09T09:59:52Z,42.805,6.029,13.3019,4.60072,2470.81,2023-3-09T12:02:29Z
2023-03-09T10:02:56Z,42.805,6.029,13.3016,4.60069,2470.81,2023-3-09T12:05:32Z
2023-03-09T10:05:59Z,42.805,6.029,13.3014,4.60069,2470.81,2023-3-09T12:08:35Z
2023-03-09T10:09:02Z,42.805,6.029,13.3018,4.60072,2470.824,2023-3-09T12:11:38Z
2023-03-09T10:12:05Z,42.805,6.029,13.3021,4.60072,2470.824,2023-3-09T12:14:41Z
2023-03-09T10:15:08Z,42.805,6.029,13.3018,4.60070,2470.787,2023-3-09T12:17:44Z
2023-03-09T10:18:11Z,42.805,6.029,13.3014,4.60069,2470.81,2023-3-09T12:20:47Z
2023-03-09T10:21:14Z,42.805,6.029,13.3015,4.60068,2470.8,2023-3-09T12:23:50Z
2023-03-09T10:24:17Z,42.805,6.029,13.3019,4.60069,2470.81,2023-3-09T12:26:53Z
2023-03-09T10:27:20Z,42.805,6.029,13.3014,4.60071,2470.824,2023-3-09T12:29:56Z
2023-03-09T10:30:23Z,42.805,6.029,13.3024,4.60070,2470.787,2023-3-09T12:32:59Z
2023-03-09T10:33:26Z,42.805,6.029,13.3015,4.60070,2470.824,2023-3-09T12:36:03Z
2023-03-09T10:36:29Z,42.805,6.029,13.3015,4.60069,2470.796,2023-3-09T12:39:06Z
2023-03-09T10:39:32Z,42.805,6.029,13.3016,4.60069,2470.8,2023-3-09T12:42:09Z
2023-03-09T10:42:36Z,42.805,6.029,13.3017,4.60069,2470.763,2023-3-09T12:45:12Z
2023-03-09T10:45:39Z,42.805,6.029,13.3017,4.60069,2470.8,2023-3-09T12:48:15Z
2023-03-09T10:48:42Z,42.805,6.029,13.3015,4.60068,2470.787,2023-3-09T12:51:18Z
2023-03-09T10:51:45Z,42.805,6.029,13.3026,4.60070,2470.777,2023-3-09T12:54:21Z
2023-03-09T10:54:48Z,42.805,6.029,13.3036,4.60084,2470.8,2023-3-09T12:57:24Z
2023-03-09T10:57:51Z,42.805,6.029,13.3020,4.60069,2470.777,2023-3-09T13:00:27Z
2023-03-09T11:00:54Z,42.805,6.029,13.3016,4.60070,2470.754,2023-3-09T13:03:30Z
2023-03-09T11:03:57Z,42.805,6.029,13.3015,4.60069,2470.777,2023-3-09T13:06:33Z
2023-03-09T11:07:00Z,42.805,6.029,13.3016,4.60071,2470.754,2023-3-09T13:09:36Z
2023-03-09T11:10:03Z,42.805,6.029,13.3014,4.60071,2470.717,2023-3-09T13:12:39Z
2023-03-09T11:13:06Z,42.805,6.029,13.3017,4.60067,2470.74,2023-3-09T13:15:43Z
2023-03-09T11:16:09Z,42.805,6.029,13.3015,4.60069,2470.74,2023-3-09T13:18:46Z
2023-03-09T11:19:12Z,42.805,6.029,13.3017,4.60067,2470.777,2023-3-09T13:21:49Z
2023-03-09T11:22:16Z,42.805,6.029,13.3020,4.60068,2470.777,2023-3-09T13:24:52Z
2023-03-09T11:25:19Z,42.805,6.029,13.3015,4.60069,2470.763,2023-3-09T13:27:55Z
2023-03-09T11:28:22Z,42.805,6.029,13.3014,4.60067,2470.73,2023-3-09T13:30:58Z
2023-03-09T11:31:25Z,42.805,6.029,13.3014,4.60067,2470.763,2023-3-09T13:34:01Z
2023-03-09T11:34:28Z,42.805,6.029,13.3020,4.60068,2470.763,2023-3-09T13:37:04Z
2023-03-09T11:37:31Z,42.805,6.029,13.3019,4.60069,2470.717,2023-3-09T13:40:07Z
2023-03-09T11:40:34Z,42.805,6.029,13.3015,4.60069,2470.74,2023-3-09T13:43:10Z
2023-03-09T11:43:37Z,42.805,6.029,13.3016,4.60067,2470.717,2023-3-09T13:46:13Z
2023-03-09T11:46:40Z,42.805,6.029,13.3017,4.60072,2470.717,2023-3-09T13:49:16Z
2023-03-09T11:49:43Z,42.805,6.029,13.3015,4.60067,2470.754,2023-3-09T13:52:20Z
2023-03-09T11:52:46Z,42.805,6.029,13.3017,4.60068,2470.754,2023-3-09T13:55:23Z
2023-03-09T11:55:49Z,42.805,6.029,13.3022,4.60074,2470.717,2023-3-09T13:58:26Z
2023-03-09T11:58:53Z,42.805,6.029,13.3021,4.60072,2470.73,2023-3-09T14:01:29Z
2023-03-09T12:01:56Z,42.805,6.029,13.3020,4.60070,2470.74,2023-3-09T14:04:32Z
2023-03-09T12:04:59Z,42.805,6.029,13.3015,4.60069,2470.684,2023-3-09T14:07:35Z
2023-03-09T12:08:02Z,42.805,6.029,13.3011,4.60069,2470.693,2023-3-09T14:10:38Z
2023-03-09T12:11:05Z,42.805,6.029,13.3018,4.60069,2470.717,2023-3-09T14:13:41Z
2023-03-09T12:14:08Z,42.805,6.029,13.3018,4.60067,2470.717,2023-3-09T14:16:44Z
2023-03-09T12:17:11Z,42.805,6.029,13.3019,4.60069,2470.73,2023-3-09T14:19:47Z
2023-03-09T12:20:14Z,42.805,6.029,13.3017,4.60069,2470.693,2023-3-09T14:22:50Z
2023-03-09T12:23:17Z,42.805,6.029,13.3015,4.60069,2470.754,2023-3-09T14:25:53Z
2023-03-09T12:26:20Z,42.805,6.029,13.3017,4.60068,2470.74,2023-3-09T14:28:57Z
2023-03-09T12:29:23Z,42.805,6.029,13.3017,4.60070,2470.707,2023-3-09T14:32:00Z
2023-03-09T12:32:26Z,42.805,6.029,13.3017,4.60068,2470.633,2023-3-09T14:35:03Z
2023-03-09T12:35:29Z,42.805,6.029,13.3015,4.60068,2470.693,2023-3-09T14:38:06Z
2023-03-09T12:38:33Z,42.805,6.029,13.3018,4.60068,2470.67,2023-3-09T14:41:09Z
2023-03-09T12:41:36Z,42.805,6.029,13.3017,4.60067,2470.717,2023-3-09T14:44:12Z
2023-03-09T12:44:39Z,42.805,6.029,13.3016,4.60067,2470.693,2023-3-09T14:47:15Z
2023-03-09T12:47:42Z,42.805,6.029,13.3015,4.60068,2470.717,2023-3-09T14:50:18Z
2023-03-09T12:50:45Z,42.805,6.029,13.3013,4.60069,2470.67,2023-3-09T14:53:21Z
2023-03-09T12:53:48Z,42.805,6.029,13.3016,4.60067,2470.74,2023-3-09T14:56:24Z
2023-03-09T12:56:51Z,42.805,6.029,13.3017,4.60067,2470.707,2023-3-09T14:59:27Z
2023-03-09T12:59:54Z,42.805,6.029,13.3018,4.60067,2470.693,2023-3-09T15:02:30Z
2023-03-09T13:02:57Z,42.805,6.029,13.3015,4.60067,2470.67,2023-3-09T15:05:33Z
2023-03-09T13:06:00Z,42.805,6.029,13.3014,4.60067,2470.707,2023-3-09T15:08:37Z
2023-03-09T13:09:03Z,42.805,6.029,13.3013,4.60069,2470.693,2023-3-09T15:11:40Z
2023-03-09T13:12:06Z,42.805,6.029,13.3018,4.60064,2470.693,2023-3-09T15:14:43Z
2023-03-09T13:15:10Z,42.805,6.029,13.3015,4.60067,2470.67,2023-3-09T15:17:46Z
2023-03-09T13:18:13Z,42.805,6.029,13.3016,4.60069,2470.684,2023-3-09T15:20:49Z
2023-03-09T13:21:16Z,42.805,6.029,13.3017,4.60067,2470.684,2023-3-09T15:23:52Z
2023-03-09T13:24:19Z,42.805,6.029,13.3015,4.60067,2470.693,2023-3-09T15:26:55Z
2023-03-09T13:27:22Z,42.805,6.029,13.3015,4.60069,2470.646,2023-3-09T15:29:58Z
2023-03-09T13:30:25Z,42.805,6.029,13.3021,4.60069,2470.684,2023-3-09T15:33:01Z
2023-03-09T13:33:28Z,42.805,6.029,13.3018,4.60069,2470.67,2023-3-09T15:36:04Z
2023-03-09T13:36:31Z,42.805,6.029,13.3015,4.60067,2470.707,2023-3-09T15:39:07Z
2023-03-09T13:39:34Z,42.805,6.029,13.3013,4.60068,2470.646,2023-3-09T15:42:10Z
2023-03-09T13:42:37Z,42.805,6.029,13.3015,4.60068,2470.67,2023-3-09T15:45:14Z
2023-03-09T13:45:40Z,42.805,6.029,13.3018,4.60067,2470.624,2023-3-09T15:48:17Z
2023-03-09T13:48:43Z,42.805,6.029,13.3015,4.60067,2470.67,2023-3-09T15:51:20Z
2023-03-09T13:51:46Z,42.805,6.029,13.3016,4.60068,2470.646,2023-3-09T15:54:23Z
2023-03-09T13:54:50Z,42.805,6.029,13.3014,4.60068,2470.646,2023-3-09T15:57:26Z
2023-03-09T13:57:53Z,42.805,6.029,13.3015,4.60068,2470.707,2023-3-09T16:00:29Z
2023-03-09T14:00:56Z,42.805,6.029,13.3015,4.60069,2470.646,2023-3-09T16:03:32Z
2023-03-09T14:03:59Z,42.805,6.029,13.3017,4.60067,2470.646,2023-3-09T16:06:35Z
2023-03-09T14:07:02Z,42.805,6.029,13.3015,4.60069,2470.684,2023-3-09T16:09:38Z
2023-03-09T14:10:05Z,42.805,6.029,13.3017,4.60067,2470.624,2023-3-09T16:12:41Z
2023-03-09T14:13:08Z,42.805,6.029,13.3017,4.60068,2470.656,2023-3-09T16:15:44Z
2023-03-09T14:16:11Z,42.805,6.029,13.3017,4.60068,2470.646,2023-3-09T16:18:47Z
2023-03-09T14:19:14Z,42.805,6.029,13.3019,4.60069,2470.646,2023-3-09T16:21:50Z
2023-03-09T14:22:17Z,42.805,6.029,13.3019,4.60069,2470.661,2023-3-09T16:24:54Z
2023-03-09T14:25:20Z,42.805,6.029,13.3015,4.60069,2470.67,2023-3-09T16:27:57Z
2023-03-09T14:28:23Z,42.805,6.029,13.3017,4.60068,2470.6,2023-3-09T16:31:00Z
2023-03-09T14:31:26Z,42.805,6.029,13.3017,4.60068,2470.661,2023-3-09T16:34:03Z
2023-03-09T14:34:30Z,42.805,6.029,13.3015,4.60070,2470.6,2023-3-09T16:37:06Z
2023-03-09T14:37:33Z,42.805,6.029,13.3019,4.60069,2470.6,2023-3-09T16:40:09Z
2023-03-09T14:40:36Z,42.805,6.029,13.3017,4.60068,2470.637,2023-3-09T16:43:12Z
2023-03-09T14:43:39Z,42.805,6.029,13.3015,4.60069,2470.646,2023-3-09T16:46:15Z
2023-03-09T14:46:42Z,42.805,6.029,13.3016,4.60067,2470.624,2023-3-09T16:49:18Z
2023-03-09T14:49:45Z,42.805,6.029,13.3016,4.60067,2470.61,2023-3-09T16:52:21Z
2023-03-09T14:52:48Z,42.805,6.029,13.3017,4.60068,2470.646,2023-3-09T16:55:24Z
2023-03-09T14:55:51Z,42.805,6.029,13.3015,4.60069,2470.624,2023-3-09T16:58:27Z
2023-03-09T14:58:54Z,42.805,6.029,13.3015,4.60067,2470.614,2023-3-09T17:01:31Z
2023-03-09T15:01:57Z,42.805,6.029,13.3015,4.60069,2470.637,2023-3-09T17:04:34Z
2023-03-09T15:05:00Z,42.805,6.029,13.3018,4.60070,2470.646,2023-3-09T17:07:37Z
2023-03-09T15:08:03Z,42.805,6.029,13.3020,4.60069,2470.614,2023-3-09T17:10:40Z
2023-03-09T15:11:07Z,42.805,6.029,13.3019,4.60075,2470.624,2023-3-09T17:13:43Z
2023-03-09T15:14:10Z,42.805,6.029,13.3017,4.60068,2470.624,2023-3-09T17:16:46Z